Flag for Canada Weather past 2 weeks in Sanikiluaq, Nunavut Territory, Canada

Now
1 °F

Light snow. Overcast.


Feels Like: -16 °F
Forecast: -21 / -12 °F
Wind: 13 mph from Northwest

Location: Kuujjuarapik

Current Time: Mar 1, 2015 at 9:08:43 PM

Latest Report: Mar 1, 2015 at 8:00 PM


Visibility: 1 mi

Pressure: 29.73 "Hg

Humidity: 85%

Dew point: -2 °F

Location of SanikiluaqLocation

Historic Weather in Sanikiluaq — Graph

°F

Sanikiluaq temperature yesterday

Maximum temperature yesterday: 9 °F (at 11:55 PM)
Minimum temperature yesterday: -26 °F (at 5:00 AM)
Average temperature yesterday: -7 °F

Past Weeks' High & Low Weather Summary

 TemperatureHumidityPressure
High16 °F (Mar 1, 12:00 PM)85% (Feb 28, 11:00 PM)30.50 "Hg (Feb 28, 11:00 PM)
Low-42 °F (Feb 15, 7:00 AM)54% (Feb 20, 4:00 PM)29.40 "Hg (Feb 24, 3:00 PM)
Average-14 °F72%29.95 "Hg
* Reported Feb 14 8:00 PM — Mar 1 8:00 PM, Sanikiluaq, Weather by CustomWeather, © 2015

Note: Actual official high and low records may vary slightly from our data, if they occured in-between our weather recording intervals... More about our weather records

Advertising

Sanikiluaq weather history for previous 24 hours

 ConditionsComfort  
Time TempWeatherWind HumidityBarometerVisibility
8:00 PM
Sun, Mar 1
1 °FLight snow. Overcast.13 mph85%29.73 "Hg1 mi
7:00 PM12 °FLight snow. Overcast.10 mph85%29.68 "Hg5 mi
6:00 PM14 °FLight snow. Overcast.13 mph79%29.69 "Hg2 mi
5:51 PM14 °FLight snow. Overcast.14 mph79%29.68 "Hg2 mi
5:00 PM14 °FLight snow. Overcast.17 mph79%29.68 "Hg2 mi
4:56 PM14 °FLight snow. Mostly cloudy.15 mph85%29.68 "Hg2 mi
4:02 PM16 °FLight snow. Mostly cloudy.18 mph79%29.68 "Hg2 mi
3:00 PM16 °FLight snow. Mostly cloudy.16 mph79%29.69 "Hg1 mi
2:00 PM16 °FLight snow. Mostly cloudy.12 mph79%29.70 "Hg4 mi
1:00 PM16 °FPassing clouds.13 mph73%29.73 "Hg9 mi
12:00 PM16 °FMostly cloudy.17 mph67%29.75 "Hg9 mi
11:00 AM14 °FOvercast.16 mph73%29.78 "Hg9 mi
10:00 AM10 °FPartly sunny.15 mph79%29.80 "Hg9 mi
9:00 AM9 °FOvercast.8 mph78%29.83 "Hg9 mi
8:00 AM9 °FOvercast.14 mph72%29.83 "Hg9 mi
7:00 AM10 °FOvercast.15 mph72%29.85 "Hg9 mi
6:00 AM10 °FOvercast.14 mph72%29.87 "Hg9 mi
5:00 AM10 °FOvercast.14 mph72%29.89 "Hg9 mi
4:00 AM10 °FOvercast.13 mph72%29.92 "Hg9 mi
3:00 AM10 °FOvercast.10 mph79%29.95 "Hg9 mi
2:00 AM10 °FOvercast.12 mph79%29.97 "Hg9 mi
1:00 AM9 °FPassing clouds.12 mph78%30.00 "Hg9 mi
12:00 AM9 °FLight snow. Partly cloudy.12 mph78%30.02 "Hg9 mi
11:55 PM
Sat, Feb 28
9 °FLight snow. Mostly cloudy.13 mph78%30.02 "Hg6 mi
11:00 PM7 °FLight snow. Overcast.13 mph85%30.03 "Hg5 mi
10:00 PM7 °FLight snow. Overcast.12 mph78%30.06 "Hg5 mi
9:00 PM5 °FOvercast.10 mph78%30.09 "Hg9 mi
Weather by CustomWeather, © 2015

See weather overviewHow to use our weather pages